EW2565 Weather Reports


time (UTC)temp
C
wind
direction
speed
KPH
gust
KPH
rain 1hr
cm
rain 24hr
cm
rain mn
cm
humidity
%
barometer
mb
20260906231516 24 134 1.6 6.4 0.00 0.03 0.00 29 1002.0
20260906230020 24 134 3.2 11.3 0.00 0.03 0.00 29 1001.9
20260906224515 24 134 4.8 9.7 0.00 0.03 0.00 28 1002.0
20260906223014 24 134 6.4 12.9 0.00 0.03 0.00 27 1002.1
20260906221512 24 134 3.2 8.0 0.00 0.03 0.00 27 1002.3
20260906220017 24 134 3.2 12.9 0.00 0.03 0.00 27 1002.3
20260906214524 24 134 3.2 12.9 0.00 0.03 0.00 26 1002.4
20260906213014 25 134 3.2 9.7 0.00 0.03 0.00 25 1002.3
20260906211512 25 134 4.8 11.3 0.00 0.03 0.00 24 1002.6
20260906210009 25 134 4.8 9.7 0.00 0.03 0.00 23 1002.6
20260906204509 25 134 1.6 14.5 0.00 0.03 0.00 23 1002.8
20260906203008 25 134 8.0 16.1 0.00 0.03 0.00 23 1002.9
20260906201505 25 134 4.8 12.9 0.00 0.03 0.00 23 1003.0
20260906200004 24 134 4.8 9.7 0.00 0.03 0.00 23 1003.1
20260906194503 24 134 0.0 6.4 0.00 0.03 0.00 27 1003.2
20260906193102 25 134 1.6 9.7 0.00 0.03 0.00 28 1003.3
20260906191558 23 134 1.6 8.0 0.00 0.03 0.00 31 1003.5
20260906190139 23 134 3.2 8.0 0.00 0.03 0.00 33 1003.8
20260906184554 23 134 3.2 9.7 0.00 0.05 0.00 36 1004.1
20260906183059 23 134 1.6 6.4 0.00 0.05 0.00 36 1004.3
20260906181551 23 134 1.6 6.4 0.00 0.05 0.00 36 1004.6
20260906180050 22 134 1.6 6.4 0.00 0.05 0.00 37 1004.9
20260906174548 21 134 1.6 6.4 0.00 0.08 0.00 42 1005.3
20260906173053 21 134 1.6 6.4 0.00 0.08 0.00 44 1005.6
20260906171550 21 134 1.6 4.8 0.00 0.08 0.00 40 1005.7
20260906170046 21 134 0.0 4.8 0.00 0.08 0.00 37 1005.9
20260906164542 21 134 0.0 4.8 0.00 0.08 0.00 36 1006.1
20260906163039 20 134 0.0 3.2 0.00 0.08 0.00 41 1006.2
20260906161537 20 134 0.0 3.2 0.00 0.08 0.00 40 1006.3
20260906160038 18 134 0.0 3.2 0.00 0.08 0.00 47 1006.4
20260906154538 18 134 0.0 3.2 0.00 0.08 0.00 45 1006.6
20260906153033 17 134 0.0 0.0 0.00 0.08 0.00 47 1006.8
20260906151534 16 134 0.0 1.6 0.00 0.08 0.00 46 1006.9
20260906150033 15 134 0.0 1.6 0.00 0.08 0.00 49 1007.0
20260906144528 13 134 0.0 3.2 0.00 0.08 0.00 49 1006.9
20260906143031 13 134 0.0 1.6 0.00 0.08 0.00 52 1007.1
20260906141526 11 134 0.0 1.6 0.00 0.08 0.00 56 1007.0
20260906140041 11 134 0.0 1.6 0.00 0.08 0.00 56 1007.0
20260906134526 10 134 0.0 1.6 0.00 0.08 0.00 55 1006.7
20260906133026 8 134 0.0 1.6 0.00 0.08 0.00 59 1006.5
20260906131532 10 134 0.0 1.6 0.00 0.08 0.00 54 1006.5
20260906130021 10 134 0.0 1.6 0.00 0.08 0.00 52 1006.4
20260906124520 12 134 1.6 4.8 0.00 0.08 0.00 43 1006.3
20260906123020 12 134 1.6 4.8 0.00 0.08 0.00 45 1006.3
20260906121519 12 134 1.6 8.0 0.00 0.08 0.00 45 1006.4
20260906120023 12 134 3.2 4.8 0.00 0.08 0.00 42 1006.3
20260906114526 11 134 1.6 4.8 0.00 0.08 0.00 43 1006.3
20260906113018 11 134 0.0 4.8 0.00 0.08 0.00 46 1006.2
20260906111518 11 134 1.6 4.8 0.00 0.08 0.00 45 1006.1
20260906110017 11 134 0.0 0.0 0.00 0.08 0.00 49 1006.3
20260906104517 10 134 0.0 3.2 0.00 0.08 0.00 53 1006.2
20260906103015 10 134 0.0 0.0 0.00 0.08 0.00 54 1006.1
20260906101512 11 134 0.0 1.6 0.00 0.08 0.00 52 1005.9
20260906100011 12 134 0.0 3.2 0.00 0.08 0.00 47 1005.8
20260906094510 12 134 1.6 3.2 0.00 0.08 0.00 45 1005.6
20260906093025 12 134 0.0 3.2 0.00 0.08 0.00 52 1005.5
20260906091506 11 134 0.0 3.2 0.00 0.08 0.00 46 1005.5
20260906090003 13 134 0.0 3.2 0.00 0.08 0.00 42 1005.3
20260906084614 13 134 0.0 3.2 0.00 0.08 0.00 40 1005.5
20260906083058 13 134 1.6 3.2 0.00 0.08 0.00 39 1005.4
20260906081601 14 134 1.6 4.8 0.00 0.08 0.00 38 1005.3
20260906080107 14 134 1.6 4.8 0.00 0.08 0.00 37 1005.4
20260906074600 14 134 0.0 3.2 0.00 0.08 0.00 36 1005.5
20260906073056 14 134 1.6 4.8 0.00 0.08 0.00 39 1005.4
20260906071552 14 134 1.6 4.8 0.00 0.08 0.00 38 1005.2
20260906070053 15 134 1.6 4.8 0.00 0.08 0.00 39 1005.1
20260906064550 15 134 1.6 4.8 0.00 0.08 0.00 38 1005.1
20260906063053 15 134 1.6 4.8 0.00 0.08 0.00 38 1005.0
20260906061551 16 134 1.6 3.2 0.00 0.08 0.00 36 1005.0
20260906060045 16 134 1.6 4.8 0.00 0.08 0.00 34 1005.0
20260906054546 16 134 1.6 3.2 0.00 0.08 0.00 34 1004.9
20260906053055 16 134 1.6 4.8 0.00 0.08 0.00 33 1004.9
20260906051543 16 134 3.2 4.8 0.00 0.08 0.00 32 1004.9
20260906050046 16 134 3.2 4.8 0.00 0.08 0.00 32 1005.0
20260906044546 16 134 3.2 4.8 0.00 0.08 0.00 32 1005.1
20260906043045 17 134 1.6 4.8 0.00 0.08 0.00 29 1005.0
20260906041551 16 134 1.6 3.2 0.00 0.08 0.00 32 1005.0
20260906040038 16 134 1.6 4.8 0.00 0.08 0.00 34 1004.9
20260906034543 17 134 0.0 3.2 0.00 0.10 0.08 35 1004.9
20260906033036 18 134 0.0 6.4 0.00 0.10 0.08 30 1004.7
20260906031539 18 134 0.0 1.6 0.00 0.10 0.08 31 1004.6
20260906030043 19 134 3.2 4.8 0.00 0.10 0.08 26 1004.3
20260906024536 20 134 1.6 4.8 0.00 0.10 0.08 25 1004.1
20260906023035 20 134 1.6 4.8 0.00 0.10 0.08 24 1003.9
20260906021535 20 134 1.6 3.2 0.00 0.10 0.08 24 1003.9
20260906020034 20 134 1.6 4.8 0.00 0.10 0.08 24 1003.7
20260906014544 22 134 0.0 3.2 0.00 0.10 0.08 22 1003.8
20260906013033 22 134 0.0 3.2 0.00 0.10 0.08 22 1003.8
20260906011543 23 134 0.0 6.4 0.00 0.10 0.08 20 1003.9
20260906010056 24 134 1.6 6.4 0.00 0.10 0.08 20 1003.9
20260906004532 25 134 1.6 8.0 0.00 0.10 0.08 19 1003.7
20260906003031 25 134 3.2 11.3 0.00 0.10 0.08 18 1003.6
20260906001548 25 134 3.2 6.4 0.00 0.10 0.08 18 1003.4
20260906000033 25 134 4.8 14.5 0.03 0.10 0.08 18 1003.4
20260905234533 25 134 4.8 12.9 0.03 0.10 0.08 17 1003.3
20260905233033 25 134 4.8 17.7 0.03 0.10 0.08 20 1003.1